Change the Weather History Date:

Wednesday, October 17, 2012

  Actual Average Record
Temperature  
Mean Temperature 48 °F 43 °F  
Max Temperature 65 °F 62 °F 75 °F (1991)
Min Temperature 31 °F 24 °F 8 °F (1999)
Degree Days  
Heating Degree Days 17 22  
Month to date heating degree days 313 325  
Since 1 July heating degree days 669 756  
Cooling Degree Days 0 0  
Month to date cooling degree days 0 0  
Year to date cooling degree days 115 51  
Moisture  
Dew Point 7 °F    
Average Humidity 33    
Maximum Humidity 60    
Minimum Humidity 5    
Precipitation  
Precipitation 0.00 in 0.02 in 0.73 in (1965)
Month to date precipitation 0.37 0.37  
Year to date precipitation 4.69 6.23  
Snow  
Snow 0.00 in 0.10 in 2.80 in (1966)
Month to date snowfall 0.0 0.7  
Since 1 July snowfall 0.0 0.7  
Since 1 September snowfall 0.0 0.7  
Snow Depth 0.00 in    
Sea Level Pressure  
Sea Level Pressure 29.81 in    
Wind  
Wind Speed 15 mph (NNW)    
Max Wind Speed 32 mph    
Max Gust Speed 45 mph    
Visibility 10 miles    
Events      
T = Trace of Precipitation, MM = Missing Value Source: NWS Daily Summary

Daily Weather History Graph

Daily Weather History Graph

Search for Another Location

Airport or City:

Trip Planner

Search our weather history database for the weather conditions in past years. The results will help you decide how hot, cold, wet, or windy it might be!

Date:

Astronomy

Oct. 17, 2012 Rise Set
Actual Time 7:13 AM MDT 6:22 PM MDT
Civil Twilight 6:47 AM MDT 6:49 PM MDT
Nautical Twilight 6:17 AM MDT 7:19 PM MDT
Astronomical Twilight 5:46 AM MDT 7:49 PM MDT
Moon 9:47 AM MDT (10/17) 8:05 PM MDT (10/17)
Length of Visible Light 12h 01m
Length of Day
11h 08m
Waxing Crescent, 7% of the Moon is Illuminated
Oct 17
Waxing Crescent
Oct 21
First Quarter
Oct 29
Full
Nov 6
Last Quarter
Nov 13
New

Hourly Weather History & Observations

Time (MDT) Temp. Windchill Dew Point Humidity Pressure Visibility Wind Dir Wind Speed Gust Speed Precip Events Conditions
12:52 AM 48.0 °F - 24.1 °F 39% 29.65 in 10.0 mi SSW 13.8 mph - N/A   Clear
1:52 AM 41.0 °F 34.7 °F 26.1 °F 55% 29.65 in 10.0 mi SW 10.4 mph - N/A   Clear
2:52 AM 41.0 °F 35.8 °F 27.0 °F 57% 29.65 in 10.0 mi SW 8.1 mph - N/A   Scattered Clouds
3:52 AM 48.0 °F - 28.0 °F 46% 29.65 in 10.0 mi NNE 8.1 mph - N/A   Mostly Cloudy
4:52 AM 46.9 °F - 33.1 °F 59% 29.66 in 10.0 mi North 17.3 mph 23.0 mph N/A   Clear
5:52 AM 44.1 °F 37.1 °F 30.9 °F 60% 29.71 in 10.0 mi North 15.0 mph - N/A   Clear
6:52 AM 46.9 °F - 23.0 °F 39% 29.74 in 10.0 mi NNW 12.7 mph - N/A   Clear
7:52 AM 45.0 °F 40.1 °F 19.9 °F 37% 29.78 in 10.0 mi NW 9.2 mph - N/A   Clear
8:52 AM 51.1 °F - 12.9 °F 22% 29.80 in 10.0 mi North 11.5 mph - N/A   Clear
9:52 AM 54.0 °F - 12.0 °F 19% 29.80 in 10.0 mi North 16.1 mph - N/A   Clear
10:52 AM 55.9 °F - 3.0 °F 12% 29.82 in 10.0 mi North 21.9 mph 27.6 mph N/A   Clear
11:48 AM 57.2 °F - -5.8 °F 8% 30.02 in 7.0 mi NNW 25.3 mph 35.7 mph N/A   Mostly Cloudy
11:52 AM 57.0 °F - -6.0 °F 8% 29.84 in 6.0 mi NNW 23.0 mph 35.7 mph N/A   Haze
12:31 PM 59.0 °F - -7.6 °F 6% 30.01 in 10.0 mi North 26.5 mph 32.2 mph N/A   Scattered Clouds
12:52 PM 59.0 °F - -8.0 °F 6% 29.79 in 10.0 mi NNW 23.0 mph 33.4 mph N/A   Partly Cloudy
1:52 PM 62.1 °F - -8.0 °F 6% 29.78 in 10.0 mi NNW 21.9 mph 33.4 mph N/A   Clear
2:52 PM 64.0 °F - -7.1 °F 6% 29.75 in 10.0 mi NW 23.0 mph 33.4 mph N/A   Clear
3:52 PM 64.0 °F - -6.0 °F 6% 29.73 in 10.0 mi NNW 20.7 mph 32.2 mph N/A   Clear
4:52 PM 63.0 °F - -4.0 °F 7% 29.75 in 10.0 mi NW 24.2 mph 36.8 mph N/A   Clear
5:52 PM 55.9 °F - -5.1 °F 8% 29.81 in 9.0 mi North 20.7 mph 26.5 mph N/A   Clear
6:52 PM 50.0 °F - -0.9 °F 12% 29.85 in 10.0 mi North 18.4 mph - N/A   Clear
7:52 PM 48.9 °F - -0.0 °F 13% 29.91 in 10.0 mi North 13.8 mph - N/A   Clear
8:52 PM 45.0 °F 39.3 °F 1.0 °F 16% 29.92 in 10.0 mi NNE 11.5 mph - N/A   Clear
9:52 PM 46.0 °F 39.9 °F 1.9 °F 16% 29.90 in 10.0 mi North 13.8 mph - N/A   Clear
10:52 PM 32.0 °F 26.4 °F 5.0 °F 32% 29.99 in 10.0 mi SE 5.8 mph - N/A   Clear
11:52 PM 36.0 °F - 3.9 °F 26% 29.98 in 10.0 mi Calm Calm - N/A   Clear